Williamsport, PA

11:57 AM EDT on June 24, 2018 (GMT -0400)
Williamsport Rgnl

Weather History for KIPT - September, 2017

Change the Weather History Date:

Wednesday, September 13, 2017

  Actual Average Record
Temperature  
Mean Temperature 62 °F 64 °F  
Max Temperature 70 °F 75 °F 96 °F (1931)
Min Temperature 54 °F 54 °F 36 °F (1943)
Degree Days  
Heating Degree Days 3 3  
Month to date heating degree days 44 23  
Since 1 July heating degree days 46 37  
Cooling Degree Days 0 2  
Month to date cooling degree days 6 42  
Year to date cooling degree days 748 676  
Growing Degree Days 12 (Base 50)    
Moisture  
Dew Point 60 °F    
Average Humidity 86    
Maximum Humidity 93    
Minimum Humidity 78    
Precipitation  
Precipitation 0.02 in 0.15 in 2.78 in (1996)
Month to date precipitation 1.05 1.79  
Year to date precipitation 37.08 28.82  
Sea Level Pressure  
Sea Level Pressure 29.89 in    
Wind  
Wind Speed 3 mph (East)    
Max Wind Speed 9 mph    
Max Gust Speed 11 mph    
Visibility 8 miles    
Events Rain    
T = Trace of Precipitation, MM = Missing Value Source: NWS Daily Summary

Daily Weather History Graph

Daily Weather History Graph

Search for Another Location

Airport or City:

Astronomy

Sep. 13, 2017 Rise Set
Actual Time 6:46 AM EDT 7:19 PM EDT
Civil Twilight 6:18 AM EDT 7:47 PM EDT
Nautical Twilight 5:45 AM EDT 8:20 PM EDT
Astronomical Twilight 5:12 AM EDT 8:53 PM EDT
Moon No Moon Rise 2:36 PM EDT (9/13)
Length of Visible Light 13h 28m
Length of Day
12h 33m
Last Quarter, 46% of the Moon is Illuminated
Sep 13
Last Quarter
Sep 20
New
Sep 27
First Quarter
Oct 5
Full
Oct 12
Last Quarter

Hourly Weather History & Observations

Time (EDT) Temp. Dew Point Humidity Pressure Visibility Wind Dir Wind Speed Gust Speed Precip Events Conditions
12:54 AM 57.0 °F 55.0 °F 93% 29.93 in 10.0 mi Calm Calm - N/A   Clear
1:54 AM 55.9 °F 54.0 °F 93% 29.93 in 10.0 mi Calm Calm - N/A   Clear
2:54 AM 57.0 °F 54.0 °F 89% 29.92 in 10.0 mi NNW 3.5 mph - N/A   Clear
3:54 AM 55.0 °F 53.1 °F 93% 29.92 in 10.0 mi Calm Calm - N/A   Clear
4:54 AM 55.0 °F 53.1 °F 93% 29.92 in 10.0 mi Calm Calm - N/A   Clear
5:54 AM 55.0 °F 52.0 °F 89% 29.93 in 10.0 mi Calm Calm - N/A   Mostly Cloudy
6:54 AM 55.9 °F 53.1 °F 90% 29.94 in 10.0 mi Calm Calm - N/A   Mostly Cloudy
7:54 AM 57.9 °F 54.0 °F 87% 29.94 in 10.0 mi Calm Calm - N/A   Overcast
8:08 AM 57.9 °F 54.0 °F 87% 29.94 in 10.0 mi Calm Calm - N/A   Overcast
8:54 AM 60.1 °F 55.0 °F 83% 29.93 in 10.0 mi Calm Calm - N/A   Overcast
9:40 AM 61.0 °F 57.0 °F 87% 29.94 in 10.0 mi Calm Calm - N/A   Overcast
9:54 AM 62.1 °F 57.0 °F 84% 29.93 in 10.0 mi Calm Calm - N/A   Overcast
10:54 AM 64.0 °F 57.9 °F 80% 29.92 in 10.0 mi Calm Calm - N/A   Overcast
11:54 AM 64.9 °F 60.1 °F 84% 29.92 in 3.0 mi Calm Calm - 0.00 in Rain Light Rain
12:38 PM 64.9 °F 62.1 °F 90% 29.91 in 4.0 mi East 3.5 mph - 0.01 in Rain Light Rain
12:54 PM 64.9 °F 62.1 °F 90% 29.91 in 4.0 mi ESE 5.8 mph - 0.02 in Rain Light Rain
1:04 PM 64.9 °F 62.1 °F 90% 29.91 in 3.0 mi ESE 4.6 mph - 0.00 in Rain Light Rain
1:54 PM 64.9 °F 63.0 °F 93% 29.89 in 3.0 mi East 5.8 mph - 0.00 in Rain Light Rain
2:54 PM 66.9 °F 64.0 °F 90% 29.86 in 3.0 mi East 8.1 mph - 0.00 in   Overcast
3:07 PM 66.9 °F 64.0 °F 90% 29.86 in 6.0 mi East 6.9 mph - N/A   Overcast
3:54 PM 69.1 °F 64.0 °F 84% 29.85 in 6.0 mi East 6.9 mph - N/A   Haze
4:54 PM 70.0 °F 64.0 °F 81% 29.85 in 10.0 mi Calm Calm - N/A   Mostly Cloudy
5:06 PM 69.1 °F 64.0 °F 84% 29.84 in 10.0 mi Calm Calm - N/A   Overcast
5:26 PM 70.0 °F 64.0 °F 81% 29.85 in 10.0 mi East 4.6 mph - N/A   Overcast
5:54 PM 70.0 °F 64.0 °F 81% 29.83 in 10.0 mi ENE 4.6 mph - N/A   Overcast
6:54 PM 69.1 °F 64.0 °F 84% 29.84 in 10.0 mi NE 4.6 mph - N/A   Overcast
7:54 PM 69.1 °F 64.9 °F 87% 29.84 in 10.0 mi SSE 3.5 mph - 0.00 in   Overcast
8:54 PM 69.1 °F 66.0 °F 90% 29.85 in 10.0 mi ENE 5.8 mph - N/A   Overcast
9:28 PM 68.0 °F 66.0 °F 93% 29.85 in 7.0 mi ENE 3.5 mph - N/A   Overcast
9:54 PM 68.0 °F 66.0 °F 93% 29.84 in 9.0 mi ENE 6.9 mph - N/A   Overcast
10:54 PM 69.1 °F 66.0 °F 90% 29.85 in 10.0 mi North 3.5 mph - N/A   Overcast
11:54 PM 68.0 °F 66.0 °F 93% 29.84 in 7.0 mi ESE 3.5 mph - N/A   Overcast